date,time,SUV Intensity [MED/Hr],UV Index,Daily total [MED],Since Last [MED]
26/08/2023,00:00:32,-0.000,0.0,0.0,0.0
26/08/2023,00:01:30,-0.000,0.0,0.0,0.0
26/08/2023,00:02:29,-0.000,0.0,0.0,0.0
26/08/2023,00:03:32,0.000,0.0,0.0,0.0
26/08/2023,00:04:32,-0.000,0.0,0.0,0.0
26/08/2023,00:05:32,0.000,0.0,0.0,0.0
26/08/2023,00:06:32,0.000,0.0,0.0,0.0
26/08/2023,00:07:32,0.001,0.0,0.0,0.0
26/08/2023,00:08:32,0.000,0.0,0.0,0.0
26/08/2023,00:09:31,0.000,0.0,0.0,0.0
26/08/2023,00:10:32,-0.001,0.0,0.0,0.0
26/08/2023,00:11:31,0.000,0.0,0.0,0.0
26/08/2023,00:12:32,0.000,0.0,0.0,0.0
26/08/2023,00:13:29,-0.000,0.0,0.0,0.0
26/08/2023,00:14:30,0.000,0.0,0.0,0.0
26/08/2023,00:15:32,0.000,0.0,0.0,0.0
26/08/2023,00:16:32,-0.001,0.0,0.0,0.0
26/08/2023,00:17:32,-0.001,0.0,0.0,0.0
26/08/2023,00:18:32,0.001,0.0,0.0,0.0
26/08/2023,00:19:32,-0.001,0.0,0.0,0.0
26/08/2023,00:20:32,0.000,0.0,0.0,0.0
26/08/2023,00:21:32,-0.000,0.0,0.0,0.0
26/08/2023,00:22:32,0.000,0.0,0.0,0.0
26/08/2023,00:23:32,0.000,0.0,0.0,0.0
26/08/2023,00:24:30,0.001,0.0,0.0,0.0
26/08/2023,00:25:29,-0.001,0.0,0.0,0.0
26/08/2023,00:26:31,0.000,0.0,0.0,0.0
26/08/2023,00:27:31,0.000,0.0,0.0,0.0
26/08/2023,00:28:32,-0.001,0.0,0.0,0.0
26/08/2023,00:29:32,-0.001,0.0,0.0,0.0
26/08/2023,00:30:32,-0.001,0.0,0.0,0.0
26/08/2023,00:31:32,0.000,0.0,0.0,0.0
26/08/2023,00:32:32,0.000,0.0,0.0,0.0
26/08/2023,00:33:30,0.000,0.0,0.0,0.0
26/08/2023,00:34:30,0.000,0.0,0.0,0.0
26/08/2023,00:35:32,0.000,0.0,0.0,0.0
26/08/2023,00:36:32,0.000,0.0,0.0,0.0
26/08/2023,00:37:31,0.001,0.0,0.0,0.0
26/08/2023,00:38:31,0.000,0.0,0.0,0.0
26/08/2023,00:39:32,0.000,0.0,0.0,0.0
26/08/2023,00:40:32,0.001,0.0,0.0,0.0
26/08/2023,00:41:32,0.000,0.0,0.0,0.0
26/08/2023,00:42:32,0.000,0.0,0.0,0.0
26/08/2023,00:43:31,-0.001,0.0,0.0,0.0
26/08/2023,00:44:32,-0.001,0.0,0.0,0.0
26/08/2023,00:45:32,-0.001,0.0,0.0,0.0
26/08/2023,00:46:32,0.000,0.0,0.0,0.0
26/08/2023,00:47:32,0.000,0.0,0.0,0.0
26/08/2023,00:48:31,0.000,0.0,0.0,0.0
26/08/2023,00:49:32,-0.001,0.0,0.0,0.0
26/08/2023,00:50:32,0.000,0.0,0.0,0.0
26/08/2023,00:51:32,0.000,0.0,0.0,0.0
26/08/2023,00:52:32,0.000,0.0,0.0,0.0
26/08/2023,00:53:31,0.000,0.0,0.0,0.0
26/08/2023,00:54:32,0.000,0.0,0.0,0.0
26/08/2023,00:55:32,-0.001,0.0,0.0,0.0
26/08/2023,00:56:32,0.000,0.0,0.0,0.0
26/08/2023,00:57:32,-0.000,0.0,0.0,0.0
26/08/2023,00:58:32,0.001,0.0,0.0,0.0
26/08/2023,00:59:32,0.000,0.0,0.0,0.0
26/08/2023,01:00:30,-0.000,0.0,0.0,0.0
26/08/2023,01:01:29,-0.001,0.0,0.0,0.0
26/08/2023,01:02:32,0.000,0.0,0.0,0.0
26/08/2023,01:03:32,0.000,0.0,0.0,0.0
26/08/2023,01:04:31,0.000,0.0,0.0,0.0
26/08/2023,01:05:32,0.000,0.0,0.0,0.0
26/08/2023,01:06:32,0.000,0.0,0.0,0.0
26/08/2023,01:07:31,-0.000,0.0,0.0,0.0
26/08/2023,01:08:31,-0.001,0.0,0.0,0.0
26/08/2023,01:09:31,0.000,0.0,0.0,0.0
26/08/2023,01:10:32,0.001,0.0,0.0,0.0
26/08/2023,01:11:32,0.000,0.0,0.0,0.0
26/08/2023,01:12:32,-0.000,0.0,0.0,0.0
26/08/2023,01:13:32,0.000,0.0,0.0,0.0
26/08/2023,01:14:32,0.000,0.0,0.0,0.0
26/08/2023,01:15:32,0.001,0.0,0.0,0.0
26/08/2023,01:16:32,-0.000,0.0,0.0,0.0
26/08/2023,01:17:32,0.000,0.0,0.0,0.0
26/08/2023,01:18:32,0.000,0.0,0.0,0.0
26/08/2023,01:19:31,0.000,0.0,0.0,0.0
26/08/2023,01:20:32,0.001,0.0,0.0,0.0
26/08/2023,01:21:32,-0.001,0.0,0.0,0.0
26/08/2023,01:22:32,0.000,0.0,0.0,0.0
26/08/2023,01:23:31,0.001,0.0,0.0,0.0
26/08/2023,01:24:32,0.000,0.0,0.0,0.0
26/08/2023,01:25:32,0.000,0.0,0.0,0.0
26/08/2023,01:26:32,0.000,0.0,0.0,0.0
26/08/2023,01:27:32,0.000,0.0,0.0,0.0
26/08/2023,01:28:32,0.000,0.0,0.0,0.0
26/08/2023,01:29:32,-0.000,0.0,0.0,0.0
26/08/2023,01:30:32,0.000,0.0,0.0,0.0
26/08/2023,01:31:32,0.000,0.0,0.0,0.0
26/08/2023,01:32:32,0.001,0.0,0.0,0.0
26/08/2023,01:33:32,0.000,0.0,0.0,0.0
26/08/2023,01:34:32,0.000,0.0,0.0,0.0
26/08/2023,01:35:32,0.000,0.0,0.0,0.0
26/08/2023,01:36:32,-0.001,0.0,0.0,0.0
26/08/2023,01:37:32,0.001,0.0,0.0,0.0
26/08/2023,01:38:32,0.000,0.0,0.0,0.0
26/08/2023,01:39:32,0.001,0.0,0.0,0.0
26/08/2023,01:40:31,-0.000,0.0,0.0,0.0
26/08/2023,01:41:32,0.000,0.0,0.0,0.0
26/08/2023,01:42:32,0.000,0.0,0.0,0.0
26/08/2023,01:43:32,0.000,0.0,0.0,0.0
26/08/2023,01:44:32,-0.001,0.0,0.0,0.0
26/08/2023,01:45:32,-0.001,0.0,0.0,0.0
26/08/2023,01:46:32,0.001,0.0,0.0,0.0
26/08/2023,01:47:32,-0.000,0.0,0.0,0.0
26/08/2023,01:48:32,-0.000,0.0,0.0,0.0
26/08/2023,01:49:32,-0.001,0.0,0.0,0.0
26/08/2023,01:50:32,-0.000,0.0,0.0,0.0
26/08/2023,01:51:31,-0.001,0.0,0.0,0.0
26/08/2023,01:52:35,0.000,0.0,0.0,0.0
26/08/2023,01:53:33,0.000,0.0,0.0,0.0
26/08/2023,01:54:32,-0.001,0.0,0.0,0.0
26/08/2023,01:55:32,0.000,0.0,0.0,0.0
26/08/2023,01:56:32,0.000,0.0,0.0,0.0
26/08/2023,01:57:32,0.000,0.0,0.0,0.0
26/08/2023,01:58:32,-0.001,0.0,0.0,0.0
26/08/2023,01:59:30,0.001,0.0,0.0,0.0
26/08/2023,02:00:30,-0.001,0.0,0.0,0.0
26/08/2023,02:01:32,0.000,0.0,0.0,0.0
26/08/2023,02:02:32,0.001,0.0,0.0,0.0
26/08/2023,02:03:32,0.000,0.0,0.0,0.0
26/08/2023,02:04:32,0.001,0.0,0.0,0.0
26/08/2023,02:05:32,0.001,0.0,0.0,0.0
26/08/2023,02:06:32,0.001,0.0,0.0,0.0
26/08/2023,02:07:32,0.001,0.0,0.0,0.0
26/08/2023,02:08:32,0.000,0.0,0.0,0.0
26/08/2023,02:09:32,0.000,0.0,0.0,0.0
26/08/2023,02:10:32,-0.001,0.0,0.0,0.0
26/08/2023,02:11:32,-0.000,0.0,0.0,0.0
26/08/2023,02:12:32,-0.001,0.0,0.0,0.0
26/08/2023,02:13:32,0.000,0.0,0.0,0.0
26/08/2023,02:14:32,-0.000,0.0,0.0,0.0
26/08/2023,02:15:32,0.000,0.0,0.0,0.0
26/08/2023,02:16:32,0.000,0.0,0.0,0.0
26/08/2023,02:17:30,-0.000,0.0,0.0,0.0
26/08/2023,02:18:30,-0.001,0.0,0.0,0.0
26/08/2023,02:19:32,0.001,0.0,0.0,0.0
26/08/2023,02:20:33,0.000,0.0,0.0,0.0
26/08/2023,02:21:32,0.000,0.0,0.0,0.0
26/08/2023,02:22:33,-0.001,0.0,0.0,0.0
26/08/2023,02:23:32,0.000,0.0,0.0,0.0
26/08/2023,02:24:32,0.001,0.0,0.0,0.0
26/08/2023,02:25:32,0.001,0.0,0.0,0.0
26/08/2023,02:26:32,0.000,0.0,0.0,0.0
26/08/2023,02:27:32,0.000,0.0,0.0,0.0
26/08/2023,02:28:32,0.000,0.0,0.0,0.0
26/08/2023,02:29:32,0.001,0.0,0.0,0.0
26/08/2023,02:30:32,0.000,0.0,0.0,0.0
26/08/2023,02:31:32,0.001,0.0,0.0,0.0
26/08/2023,02:32:32,0.000,0.0,0.0,0.0
26/08/2023,02:33:32,-0.000,0.0,0.0,0.0
26/08/2023,02:34:30,-0.000,0.0,0.0,0.0
26/08/2023,02:35:30,0.000,0.0,0.0,0.0
26/08/2023,02:36:32,-0.001,0.0,0.0,0.0
26/08/2023,02:37:32,-0.000,0.0,0.0,0.0
26/08/2023,02:38:31,0.000,0.0,0.0,0.0
26/08/2023,02:39:55,0.001,0.0,0.0,0.0
26/08/2023,02:40:32,0.000,0.0,0.0,0.0
26/08/2023,02:41:32,-0.000,0.0,0.0,0.0
26/08/2023,02:42:30,0.001,0.0,0.0,0.0
26/08/2023,02:43:30,0.001,0.0,0.0,0.0
26/08/2023,02:44:32,0.000,0.0,0.0,0.0
26/08/2023,02:45:32,0.001,0.0,0.0,0.0
26/08/2023,02:46:32,0.000,0.0,0.0,0.0
26/08/2023,02:47:33,0.000,0.0,0.0,0.0
26/08/2023,02:48:32,-0.001,0.0,0.0,0.0
26/08/2023,02:49:32,0.000,0.0,0.0,0.0
26/08/2023,02:50:32,0.000,0.0,0.0,0.0
26/08/2023,02:51:32,0.001,0.0,0.0,0.0
26/08/2023,02:52:32,0.000,0.0,0.0,0.0
26/08/2023,02:53:32,0.000,0.0,0.0,0.0
26/08/2023,02:54:32,-0.001,0.0,0.0,0.0
26/08/2023,02:55:32,0.000,0.0,0.0,0.0
26/08/2023,02:56:32,0.000,0.0,0.0,0.0
26/08/2023,02:57:30,-0.000,0.0,0.0,0.0
26/08/2023,02:58:32,0.001,0.0,0.0,0.0
26/08/2023,02:59:32,0.000,0.0,0.0,0.0
26/08/2023,03:00:32,0.001,0.0,0.0,0.0
26/08/2023,03:01:32,0.000,0.0,0.0,0.0
26/08/2023,03:02:32,0.000,0.0,0.0,0.0
26/08/2023,03:03:32,0.000,0.0,0.0,0.0
26/08/2023,03:04:30,-0.001,0.0,0.0,0.0
26/08/2023,03:05:30,0.000,0.0,0.0,0.0
26/08/2023,03:06:32,0.000,0.0,0.0,0.0
26/08/2023,03:07:32,0.001,0.0,0.0,0.0
26/08/2023,03:08:32,-0.000,0.0,0.0,0.0
26/08/2023,03:09:32,0.001,0.0,0.0,0.0
26/08/2023,03:10:32,0.000,0.0,0.0,0.0
26/08/2023,03:11:32,-0.001,0.0,0.0,0.0
26/08/2023,03:12:32,-0.000,0.0,0.0,0.0
26/08/2023,03:13:32,0.000,0.0,0.0,0.0
26/08/2023,03:14:32,0.000,0.0,0.0,0.0
26/08/2023,03:15:32,0.000,0.0,0.0,0.0
26/08/2023,03:16:32,0.000,0.0,0.0,0.0
26/08/2023,03:17:32,-0.000,0.0,0.0,0.0
26/08/2023,03:18:32,0.000,0.0,0.0,0.0
26/08/2023,03:19:32,0.000,0.0,0.0,0.0
26/08/2023,03:20:32,0.000,0.0,0.0,0.0
26/08/2023,03:21:32,0.000,0.0,0.0,0.0
26/08/2023,03:22:32,-0.001,0.0,0.0,0.0
26/08/2023,03:23:31,0.000,0.0,0.0,0.0
26/08/2023,03:24:30,-0.000,0.0,0.0,0.0
26/08/2023,03:25:32,-0.000,0.0,0.0,0.0
26/08/2023,03:26:32,-0.000,0.0,0.0,0.0
26/08/2023,03:27:32,0.000,0.0,0.0,0.0
26/08/2023,03:28:32,0.000,0.0,0.0,0.0
26/08/2023,03:29:32,0.000,0.0,0.0,0.0
26/08/2023,03:30:32,-0.000,0.0,0.0,0.0
26/08/2023,03:31:32,0.000,0.0,0.0,0.0
26/08/2023,03:32:32,0.000,0.0,0.0,0.0
26/08/2023,03:33:32,0.001,0.0,0.0,0.0
26/08/2023,03:34:32,-0.000,0.0,0.0,0.0
26/08/2023,03:35:32,0.000,0.0,0.0,0.0
26/08/2023,03:36:32,0.000,0.0,0.0,0.0
26/08/2023,03:37:32,-0.001,0.0,0.0,0.0
26/08/2023,03:38:33,-0.001,0.0,0.0,0.0
26/08/2023,03:39:32,0.000,0.0,0.0,0.0
26/08/2023,03:40:33,-0.001,0.0,0.0,0.0
26/08/2023,03:41:32,-0.000,0.0,0.0,0.0
26/08/2023,03:42:32,0.000,0.0,0.0,0.0
26/08/2023,03:43:32,0.001,0.0,0.0,0.0
26/08/2023,03:44:33,-0.000,0.0,0.0,0.0
26/08/2023,03:45:32,-0.000,0.0,0.0,0.0
26/08/2023,03:46:32,-0.000,0.0,0.0,0.0
26/08/2023,03:47:32,0.000,0.0,0.0,0.0
26/08/2023,03:48:30,-0.000,0.0,0.0,0.0
26/08/2023,03:49:30,0.000,0.0,0.0,0.0
26/08/2023,03:50:32,0.000,0.0,0.0,0.0
26/08/2023,03:51:32,0.000,0.0,0.0,0.0
26/08/2023,03:52:32,0.000,0.0,0.0,0.0
26/08/2023,03:53:32,-0.000,0.0,0.0,0.0
26/08/2023,03:54:32,0.000,0.0,0.0,0.0
26/08/2023,03:55:32,0.000,0.0,0.0,0.0
26/08/2023,03:56:30,-0.001,0.0,0.0,0.0
26/08/2023,03:57:30,-0.000,0.0,0.0,0.0
26/08/2023,03:58:32,0.000,0.0,0.0,0.0
26/08/2023,03:59:32,0.000,0.0,0.0,0.0
26/08/2023,04:00:32,-0.001,0.0,0.0,0.0
26/08/2023,04:01:32,0.001,0.0,0.0,0.0
26/08/2023,04:02:33,0.000,0.0,0.0,0.0
26/08/2023,04:03:32,0.000,0.0,0.0,0.0
26/08/2023,04:04:32,-0.001,0.0,0.0,0.0
26/08/2023,04:05:32,0.000,0.0,0.0,0.0
26/08/2023,04:06:32,-0.000,0.0,0.0,0.0
26/08/2023,04:07:33,-0.000,0.0,0.0,0.0
26/08/2023,04:08:32,-0.000,0.0,0.0,0.0
26/08/2023,04:09:32,0.000,0.0,0.0,0.0
26/08/2023,04:10:32,-0.000,0.0,0.0,0.0
26/08/2023,04:11:32,0.000,0.0,0.0,0.0
26/08/2023,04:12:30,0.000,0.0,0.0,0.0
26/08/2023,04:13:30,0.000,0.0,0.0,0.0
26/08/2023,04:14:33,-0.000,0.0,0.0,0.0
26/08/2023,04:15:32,-0.001,0.0,0.0,0.0
26/08/2023,04:16:32,0.000,0.0,0.0,0.0
26/08/2023,04:17:32,0.000,0.0,0.0,0.0
26/08/2023,04:18:33,-0.000,0.0,0.0,0.0
26/08/2023,04:19:32,0.001,0.0,0.0,0.0
26/08/2023,04:20:32,0.000,0.0,0.0,0.0
26/08/2023,04:21:30,0.001,0.0,0.0,0.0
26/08/2023,04:22:31,0.001,0.0,0.0,0.0
26/08/2023,04:23:32,-0.000,0.0,0.0,0.0
26/08/2023,04:24:32,0.000,0.0,0.0,0.0
26/08/2023,04:25:32,0.000,0.0,0.0,0.0
26/08/2023,04:26:32,-0.001,0.0,0.0,0.0
26/08/2023,04:27:32,0.000,0.0,0.0,0.0
26/08/2023,04:28:31,0.000,0.0,0.0,0.0
26/08/2023,04:29:30,0.000,0.0,0.0,0.0
26/08/2023,04:30:32,-0.001,0.0,0.0,0.0
26/08/2023,04:31:32,-0.000,0.0,0.0,0.0
26/08/2023,04:32:30,0.001,0.0,0.0,0.0
26/08/2023,04:33:30,-0.000,0.0,0.0,0.0
26/08/2023,04:34:32,0.000,0.0,0.0,0.0
26/08/2023,04:35:32,0.000,0.0,0.0,0.0
26/08/2023,04:36:33,0.000,0.0,0.0,0.0
26/08/2023,04:37:32,0.001,0.0,0.0,0.0
26/08/2023,04:38:32,0.000,0.0,0.0,0.0
26/08/2023,04:39:32,0.000,0.0,0.0,0.0
26/08/2023,04:40:32,0.001,0.0,0.0,0.0
26/08/2023,04:41:32,0.001,0.0,0.0,0.0
26/08/2023,04:42:33,-0.000,0.0,0.0,0.0
26/08/2023,04:43:31,0.000,0.0,0.0,0.0
26/08/2023,04:44:30,0.000,0.0,0.0,0.0
26/08/2023,04:45:32,0.001,0.0,0.0,0.0
26/08/2023,04:46:33,0.001,0.0,0.0,0.0
26/08/2023,04:47:32,0.000,0.0,0.0,0.0
26/08/2023,04:48:32,0.000,0.0,0.0,0.0
26/08/2023,04:49:33,0.000,0.0,0.0,0.0
26/08/2023,04:50:33,0.000,0.0,0.0,0.0
26/08/2023,04:51:32,0.000,0.0,0.0,0.0
26/08/2023,04:52:32,0.001,0.0,0.0,0.0
26/08/2023,04:53:32,0.001,0.0,0.0,0.0
26/08/2023,04:54:33,0.000,0.0,0.0,0.0
26/08/2023,04:55:30,0.001,0.0,0.0,0.0
26/08/2023,04:56:30,0.001,0.0,0.0,0.0
26/08/2023,04:57:32,0.001,0.0,0.0,0.0
26/08/2023,04:58:32,0.001,0.0,0.0,0.0
26/08/2023,04:59:33,0.001,0.0,0.0,0.0
26/08/2023,05:00:32,0.001,0.0,0.0,0.0
26/08/2023,05:01:32,0.001,0.0,0.0,0.0
26/08/2023,05:02:32,0.001,0.0,0.0,0.0
26/08/2023,05:03:33,0.002,0.0,0.0,0.0
26/08/2023,05:04:32,0.002,0.0,0.0,0.0
26/08/2023,05:05:32,0.001,0.0,0.0,0.0
26/08/2023,05:06:32,0.003,0.0,0.0,0.0
26/08/2023,05:07:32,0.003,0.0,0.0,0.0
26/08/2023,05:08:32,0.002,0.0,0.0,0.0
26/08/2023,05:09:33,0.002,0.0,0.0,0.0
26/08/2023,05:10:33,0.003,0.0,0.0,0.0
26/08/2023,05:11:30,0.001,0.0,0.0,0.0
26/08/2023,05:12:30,0.002,0.0,0.0,0.0
26/08/2023,05:13:32,0.003,0.0,0.0,0.0
26/08/2023,05:14:32,0.003,0.0,0.0,0.0
26/08/2023,05:15:33,0.003,0.0,0.0,0.0
26/08/2023,05:16:32,0.003,0.0,0.0,0.0
26/08/2023,05:17:32,0.003,0.0,0.0,0.0
26/08/2023,05:18:33,0.003,0.0,0.0,0.0
26/08/2023,05:19:32,0.003,0.0,0.0,0.0
26/08/2023,05:20:33,0.003,0.0,0.0,0.0
26/08/2023,05:21:33,0.003,0.0,0.0,0.0
26/08/2023,05:22:32,0.003,0.0,0.0,0.0
26/08/2023,05:23:32,0.004,0.0,0.0,0.0
26/08/2023,05:24:32,0.004,0.0,0.0,0.0
26/08/2023,05:25:33,0.004,0.0,0.0,0.0
26/08/2023,05:26:32,0.005,0.0,0.0,0.0
26/08/2023,05:27:33,0.006,0.0,0.0,0.0
26/08/2023,05:28:32,0.005,0.0,0.0,0.0
26/08/2023,05:29:33,0.006,0.0,0.0,0.0
26/08/2023,05:30:32,0.006,0.0,0.0,0.0
26/08/2023,05:31:33,0.006,0.0,0.0,0.0
26/08/2023,05:32:32,0.006,0.0,0.0,0.0
26/08/2023,05:33:33,0.007,0.0,0.0,0.0
26/08/2023,05:34:30,0.007,0.0,0.0,0.0
26/08/2023,05:35:30,0.007,0.0,0.001,0.001
26/08/2023,05:36:32,0.008,0.0,0.001,0.0
26/08/2023,05:37:32,0.009,0.0,0.001,0.0
26/08/2023,05:38:32,0.010,0.0,0.001,0.0
26/08/2023,05:39:33,0.010,0.0,0.001,0.0
26/08/2023,05:40:32,0.009,0.0,0.001,0.0
26/08/2023,05:41:32,0.010,0.0,0.001,0.0
26/08/2023,05:42:33,0.012,0.0,0.002,0.001
26/08/2023,05:43:32,0.011,0.0,0.002,0.0
26/08/2023,05:44:32,0.012,0.0,0.002,0.0
26/08/2023,05:45:32,0.014,0.0,0.002,0.0
26/08/2023,05:46:33,0.017,0.0,0.002,0.0
26/08/2023,05:47:32,0.018,0.0,0.003,0.001
26/08/2023,05:48:32,0.016,0.0,0.003,0.0
26/08/2023,05:49:33,0.018,0.0,0.003,0.0
26/08/2023,05:50:32,0.019,0.0,0.004,0.001
26/08/2023,05:51:32,0.020,0.0,0.004,0.0
26/08/2023,05:52:30,0.020,0.0,0.004,0.0
26/08/2023,05:53:31,0.021,0.0,0.005,0.001
26/08/2023,05:54:33,0.021,0.0,0.005,0.0
26/08/2023,05:55:32,0.022,0.0,0.005,0.0
26/08/2023,05:56:32,0.021,0.0,0.006,0.001
26/08/2023,05:57:33,0.018,0.0,0.006,0.0
26/08/2023,05:58:32,0.017,0.0,0.006,0.0
26/08/2023,05:59:33,0.018,0.0,0.007,0.001
26/08/2023,06:00:32,0.017,0.0,0.007,0.0
26/08/2023,06:01:32,0.020,0.0,0.007,0.0
26/08/2023,06:02:32,0.022,0.0,0.008,0.001
26/08/2023,06:03:32,0.022,0.0,0.008,0.0
26/08/2023,06:04:32,0.020,0.0,0.008,0.0
26/08/2023,06:05:32,0.022,0.0,0.009,0.001
26/08/2023,06:06:33,0.025,0.0,0.009,0.0
26/08/2023,06:07:32,0.025,0.0,0.009,0.0
26/08/2023,06:08:32,0.026,0.0,0.01,0.001
26/08/2023,06:09:32,0.029,0.0,0.01,0.0
26/08/2023,06:10:32,0.029,0.0,0.011,0.001
26/08/2023,06:11:33,0.030,0.0,0.011,0.0
26/08/2023,06:12:32,0.029,0.0,0.012,0.001
26/08/2023,06:13:32,0.031,0.0,0.012,0.0
26/08/2023,06:14:31,0.029,0.0,0.013,0.001
26/08/2023,06:15:30,0.031,0.0,0.013,0.0
26/08/2023,06:16:32,0.030,0.0,0.014,0.001
26/08/2023,06:17:33,0.030,0.0,0.014,0.0
26/08/2023,06:18:32,0.032,0.0,0.015,0.001
26/08/2023,06:19:33,0.034,0.0,0.015,0.0
26/08/2023,06:20:32,0.033,0.0,0.016,0.001
26/08/2023,06:21:33,0.035,0.0,0.016,0.0
26/08/2023,06:22:32,0.035,0.0,0.017,0.001
26/08/2023,06:23:33,0.036,0.0,0.018,0.001
26/08/2023,06:24:33,0.037,0.0,0.018,0.0
26/08/2023,06:25:30,0.039,0.0,0.019,0.001
26/08/2023,06:26:30,0.040,0.0,0.019,0.0
26/08/2023,06:27:32,0.044,0.0,0.02,0.001
26/08/2023,06:28:31,0.044,0.0,0.021,0.001
26/08/2023,06:29:30,0.045,0.0,0.022,0.001
26/08/2023,06:30:32,0.046,0.0,0.022,0.0
26/08/2023,06:31:32,0.046,0.0,0.023,0.001
26/08/2023,06:32:32,0.046,0.0,0.024,0.001
26/08/2023,06:33:33,0.043,0.0,0.025,0.001
26/08/2023,06:34:30,0.044,0.0,0.025,0.0
26/08/2023,06:35:31,0.047,0.0,0.026,0.001
26/08/2023,06:36:33,0.053,0.0,0.027,0.001
26/08/2023,06:37:32,0.058,0.0,0.028,0.001
26/08/2023,06:38:32,0.065,0.0,0.029,0.001
26/08/2023,06:39:32,0.069,0.0,0.03,0.001
26/08/2023,06:40:30,0.074,0.0,0.031,0.001
26/08/2023,06:41:31,0.071,0.0,0.032,0.001
26/08/2023,06:42:33,0.076,0.0,0.034,0.002
26/08/2023,06:43:33,0.080,0.0,0.035,0.001
26/08/2023,06:44:32,0.091,0.0,0.036,0.001
26/08/2023,06:45:33,0.094,0.0,0.038,0.002
26/08/2023,06:46:33,0.095,0.0,0.04,0.002
26/08/2023,06:47:33,0.093,0.0,0.041,0.001
26/08/2023,06:48:32,0.091,0.0,0.043,0.002
26/08/2023,06:49:33,0.096,0.0,0.044,0.001
26/08/2023,06:50:32,0.102,0.0,0.046,0.002
26/08/2023,06:51:32,0.109,0.0,0.048,0.002
26/08/2023,06:52:32,0.109,0.0,0.049,0.001
26/08/2023,06:53:34,0.103,0.0,0.051,0.002
26/08/2023,06:54:33,0.100,0.0,0.053,0.002
26/08/2023,06:55:33,0.097,0.0,0.055,0.002
26/08/2023,06:56:32,0.097,0.0,0.056,0.001
26/08/2023,06:57:32,0.092,0.0,0.058,0.002
26/08/2023,06:58:32,0.092,0.0,0.059,0.001
26/08/2023,06:59:33,0.097,0.0,0.061,0.002
26/08/2023,07:00:32,0.097,0.0,0.062,0.001
26/08/2023,07:01:32,0.097,0.0,0.064,0.002
26/08/2023,07:02:32,0.099,0.0,0.066,0.002
26/08/2023,07:03:32,0.100,0.0,0.067,0.001
26/08/2023,07:04:31,0.111,0.0,0.069,0.002
26/08/2023,07:05:30,0.115,0.0,0.071,0.002
26/08/2023,07:06:32,0.109,0.0,0.073,0.002
26/08/2023,07:07:32,0.112,0.0,0.075,0.002
26/08/2023,07:08:33,0.129,0.0,0.077,0.002
26/08/2023,07:09:33,0.138,0.0,0.079,0.002
26/08/2023,07:10:32,0.140,0.0,0.081,0.002
26/08/2023,07:11:33,0.145,0.0,0.084,0.003
26/08/2023,07:12:33,0.147,0.0,0.086,0.002
26/08/2023,07:13:32,0.147,0.0,0.088,0.002
26/08/2023,07:14:32,0.138,0.0,0.091,0.003
26/08/2023,07:15:33,0.141,0.0,0.093,0.002
26/08/2023,07:16:33,0.148,0.0,0.096,0.003
26/08/2023,07:17:32,0.160,0.0,0.098,0.002
26/08/2023,07:18:32,0.175,0.0,0.101,0.003
26/08/2023,07:19:32,0.183,0.0,0.104,0.003
26/08/2023,07:20:32,0.195,0.0,0.107,0.003
26/08/2023,07:21:33,0.184,0.0,0.11,0.003
26/08/2023,07:22:31,0.184,0.0,0.113,0.003
26/08/2023,07:23:30,0.172,0.0,0.116,0.003
26/08/2023,07:24:32,0.179,0.0,0.119,0.003
26/08/2023,07:25:32,0.191,0.0,0.122,0.003
26/08/2023,07:26:33,0.199,0.0,0.126,0.004
26/08/2023,07:27:33,0.197,0.0,0.129,0.003
26/08/2023,07:28:33,0.195,0.0,0.132,0.003
26/08/2023,07:29:32,0.211,0.0,0.135,0.003
26/08/2023,07:30:32,0.242,1.0,0.139,0.004
26/08/2023,07:31:32,0.218,1.0,0.143,0.004
26/08/2023,07:32:32,0.219,0.0,0.147,0.004
26/08/2023,07:33:32,0.215,0.0,0.15,0.003
26/08/2023,07:34:32,0.230,1.0,0.154,0.004
26/08/2023,07:35:32,0.252,1.0,0.158,0.004
26/08/2023,07:36:32,0.281,1.0,0.162,0.004
26/08/2023,07:37:33,0.248,1.0,0.167,0.005
26/08/2023,07:38:33,0.267,1.0,0.171,0.004
26/08/2023,07:39:33,0.254,1.0,0.175,0.004
26/08/2023,07:40:32,0.247,1.0,0.18,0.005
26/08/2023,07:41:32,0.249,1.0,0.184,0.004
26/08/2023,07:42:33,0.279,1.0,0.188,0.004
26/08/2023,07:43:32,0.248,1.0,0.192,0.004
26/08/2023,07:44:32,0.222,1.0,0.196,0.004
26/08/2023,07:45:32,0.255,1.0,0.2,0.004
26/08/2023,07:46:33,0.276,1.0,0.205,0.005
26/08/2023,07:47:32,0.281,1.0,0.209,0.004
26/08/2023,07:48:33,0.299,1.0,0.214,0.005
26/08/2023,07:49:32,0.264,1.0,0.219,0.005
26/08/2023,07:50:32,0.260,1.0,0.223,0.004
26/08/2023,07:51:33,0.259,1.0,0.227,0.004
26/08/2023,07:52:32,0.248,1.0,0.232,0.005
26/08/2023,07:53:32,0.216,0.0,0.236,0.004
26/08/2023,07:54:33,0.206,0.0,0.239,0.003
26/08/2023,07:55:33,0.209,0.0,0.243,0.004
26/08/2023,07:56:32,0.210,0.0,0.246,0.003
26/08/2023,07:57:32,0.212,0.0,0.25,0.004
26/08/2023,07:58:33,0.203,0.0,0.253,0.003
26/08/2023,07:59:32,0.192,0.0,0.256,0.003
26/08/2023,08:00:32,0.181,0.0,0.259,0.003
26/08/2023,08:01:33,0.172,0.0,0.262,0.003
26/08/2023,08:02:33,0.153,0.0,0.265,0.003
26/08/2023,08:03:32,0.147,0.0,0.267,0.002
26/08/2023,08:04:32,0.157,0.0,0.27,0.003
26/08/2023,08:05:31,0.163,0.0,0.273,0.003
26/08/2023,08:06:30,0.173,0.0,0.275,0.002
26/08/2023,08:07:32,0.197,0.0,0.279,0.004
26/08/2023,08:08:32,0.212,0.0,0.282,0.003
26/08/2023,08:09:31,0.212,0.0,0.285,0.003
26/08/2023,08:10:30,0.225,1.0,0.289,0.004
26/08/2023,08:11:32,0.255,1.0,0.293,0.004
26/08/2023,08:12:33,0.247,1.0,0.297,0.004
26/08/2023,08:13:32,0.215,0.0,0.301,0.004
26/08/2023,08:14:32,0.199,0.0,0.305,0.004
26/08/2023,08:15:32,0.218,1.0,0.308,0.003
26/08/2023,08:16:33,0.250,1.0,0.312,0.004
26/08/2023,08:17:32,0.284,1.0,0.317,0.005
26/08/2023,08:18:33,0.301,1.0,0.321,0.004
26/08/2023,08:19:32,0.286,1.0,0.326,0.005
26/08/2023,08:20:32,0.267,1.0,0.331,0.005
26/08/2023,08:21:30,0.254,1.0,0.335,0.004
26/08/2023,08:22:30,0.251,1.0,0.339,0.004
26/08/2023,08:23:32,0.232,1.0,0.344,0.005
26/08/2023,08:24:33,0.219,1.0,0.347,0.003
26/08/2023,08:25:32,0.241,1.0,0.351,0.004
26/08/2023,08:26:32,0.279,1.0,0.355,0.004
26/08/2023,08:27:33,0.298,1.0,0.36,0.005
26/08/2023,08:28:32,0.312,1.0,0.365,0.005
26/08/2023,08:29:32,0.316,1.0,0.371,0.006
26/08/2023,08:30:32,0.321,1.0,0.376,0.005
26/08/2023,08:31:33,0.341,1.0,0.381,0.005
26/08/2023,08:32:33,0.366,1.0,0.387,0.006
26/08/2023,08:33:32,0.377,1.0,0.393,0.006
26/08/2023,08:34:32,0.354,1.0,0.4,0.007
26/08/2023,08:35:33,0.330,1.0,0.405,0.005
26/08/2023,08:36:33,0.355,1.0,0.411,0.006
26/08/2023,08:37:32,0.378,1.0,0.417,0.006
26/08/2023,08:38:32,0.378,1.0,0.423,0.006
26/08/2023,08:39:33,0.362,1.0,0.43,0.007
26/08/2023,08:40:32,0.344,1.0,0.435,0.005
26/08/2023,08:41:32,0.348,1.0,0.441,0.006
26/08/2023,08:42:30,0.308,1.0,0.447,0.006
26/08/2023,08:43:30,0.279,1.0,0.451,0.004
26/08/2023,08:44:32,0.326,1.0,0.456,0.005
26/08/2023,08:45:33,0.367,1.0,0.462,0.006
26/08/2023,08:46:32,0.394,1.0,0.469,0.007
26/08/2023,08:47:32,0.409,1.0,0.475,0.006
26/08/2023,08:48:33,0.428,1.0,0.482,0.007
26/08/2023,08:49:30,0.450,1.0,0.489,0.007
26/08/2023,08:50:31,0.461,1.0,0.497,0.008
26/08/2023,08:51:32,0.459,1.0,0.505,0.008
26/08/2023,08:52:33,0.453,1.0,0.513,0.008
26/08/2023,08:53:32,0.481,1.0,0.52,0.007
26/08/2023,08:54:33,0.533,1.0,0.529,0.009
26/08/2023,08:55:30,0.561,1.0,0.538,0.009
26/08/2023,08:56:31,0.543,1.0,0.547,0.009
26/08/2023,08:57:33,0.527,1.0,0.556,0.009
26/08/2023,08:58:32,0.498,1.0,0.565,0.009
26/08/2023,08:59:32,0.491,1.0,0.573,0.008
26/08/2023,09:00:33,0.489,1.0,0.581,0.008
26/08/2023,09:01:33,0.416,1.0,0.588,0.007
26/08/2023,09:02:32,0.388,1.0,0.595,0.007
26/08/2023,09:03:56,0.384,1.0,0.604,0.009
26/08/2023,09:05:33,0.367,1.0,0.614,0.01
26/08/2023,09:06:33,0.351,1.0,0.62,0.006
26/08/2023,09:07:33,0.363,1.0,0.626,0.006
26/08/2023,09:08:33,0.368,1.0,0.632,0.006
26/08/2023,09:09:32,0.394,1.0,0.638,0.006
26/08/2023,09:10:33,0.421,1.0,0.645,0.007
26/08/2023,09:11:32,0.444,1.0,0.652,0.007
26/08/2023,09:12:32,0.481,1.0,0.66,0.008
26/08/2023,09:13:33,0.493,1.0,0.668,0.008
26/08/2023,09:14:32,0.465,1.0,0.676,0.008
26/08/2023,09:15:32,0.438,1.0,0.684,0.008
26/08/2023,09:16:33,0.445,1.0,0.691,0.007
26/08/2023,09:17:33,0.475,1.0,0.699,0.008
26/08/2023,09:18:32,0.515,1.0,0.707,0.008
26/08/2023,09:19:32,0.547,1.0,0.716,0.009
26/08/2023,09:20:32,0.576,1.0,0.726,0.01
26/08/2023,09:21:32,0.557,1.0,0.735,0.009
26/08/2023,09:22:32,0.564,1.0,0.745,0.01
26/08/2023,09:23:33,0.616,1.0,0.755,0.01
26/08/2023,09:24:33,0.598,1.0,0.765,0.01
26/08/2023,09:25:32,0.593,1.0,0.775,0.01
26/08/2023,09:26:32,0.614,1.0,0.785,0.01
26/08/2023,09:27:32,0.646,1.0,0.795,0.01
26/08/2023,09:28:33,0.681,2.0,0.806,0.011
26/08/2023,09:29:32,0.674,2.0,0.817,0.011
26/08/2023,09:30:33,0.692,2.0,0.829,0.012
26/08/2023,09:31:32,0.700,2.0,0.84,0.011
26/08/2023,09:32:32,0.928,2.0,0.853,0.013
26/08/2023,09:33:33,0.823,2.0,0.867,0.014
26/08/2023,09:34:32,0.761,2.0,0.88,0.013
26/08/2023,09:35:33,0.684,2.0,0.892,0.012
26/08/2023,09:36:33,0.657,2.0,0.903,0.011
26/08/2023,09:37:32,0.668,2.0,0.914,0.011
26/08/2023,09:38:32,0.681,2.0,0.925,0.011
26/08/2023,09:39:33,0.697,2.0,0.937,0.012
26/08/2023,09:40:33,0.730,2.0,0.949,0.012
26/08/2023,09:41:33,0.954,2.0,0.964,0.015
26/08/2023,09:42:33,0.981,2.0,0.98,0.016
26/08/2023,09:43:33,0.991,2.0,0.996,0.016
26/08/2023,09:44:33,1.008,2.0,1.011,0.015
26/08/2023,09:45:33,1.006,2.0,1.027,0.016
26/08/2023,09:46:32,0.983,2.0,1.044,0.017
26/08/2023,09:47:33,0.934,2.0,1.06,0.016
26/08/2023,09:48:32,0.775,2.0,1.075,0.015
26/08/2023,09:49:33,0.773,2.0,1.088,0.013
26/08/2023,09:50:34,0.534,1.0,1.099,0.011
26/08/2023,09:51:34,0.475,1.0,1.108,0.009
26/08/2023,09:52:33,0.430,1.0,1.115,0.007
26/08/2023,09:53:33,0.399,1.0,1.122,0.007
26/08/2023,09:54:33,0.378,1.0,1.128,0.006
26/08/2023,09:55:32,0.352,1.0,1.134,0.006
26/08/2023,09:56:33,0.329,1.0,1.14,0.006
26/08/2023,09:57:32,0.328,1.0,1.146,0.006
26/08/2023,09:58:32,0.360,1.0,1.151,0.005
26/08/2023,09:59:33,0.424,1.0,1.158,0.007
26/08/2023,10:00:33,0.507,1.0,1.165,0.007
26/08/2023,10:01:32,0.575,1.0,1.175,0.01